Location: Unspecified
(49.2170°N, 0.0000°E)
Time: 15:20:17
(UTC+00:00)

Courier 1B Rocket - Visible Passes

Search period start: 25 January 2021 00:00
Search period end: 04 February 2021 00:00
Orbit: 920 x 1202 km, 28.2° (Epoch: 25 January)

Date Brightness Start Highest point End Pass type
(mag) Time Alt. Az. Time Alt. Az. Time Alt. Az.
27 Jan 7.5 06:30:26 10° S 06:32:02 11° S 06:33:38 10° SSE visible
29 Jan 7.4 06:20:56 10° SSW 06:22:46 11° S 06:24:37 10° SSE visible
31 Jan 7.3 06:12:08 10° SSW 06:13:31 11° S 06:14:57 10° S visible
01 Feb 7.2 05:12:01 10° S 05:12:57 10° S 05:13:53 10° SSE visible
